Location: Newark
(23.3970°S, 47.6010°W)
Time: 12:34:01
(UTC+00:00)

deb Explorer IX - Pass Details

Date: 18 February 2020
Orbit: 547 x 1100 km, 38.8° (Epoch: 29 March)

Event Time Altitude Azimuth Distance (km) Brightness Sun altitude
Rises 02:48:52 0° 284° (WNW) 3,790 - -53.7°
Reaches altitude 10° 02:51:38 10° 278° (W) 2,889 - -53.9°
Maximum altitude 02:58:30 47° 206° (SSW) 1,434 - -54.2°
Drops below altitude 10° 03:05:30 10° 133° (SE) 2,942 - -54.5°
Sets 03:08:21 0° 127° (SE) 3,865 - -54.5°
